カタログに戻る

GSAT 7

運用中軍事GEO
NORAD 39234·PAYLOAD·🇮🇳 India

打ち上げ Aug 29, 2013 から Guiana Space Centre

Loading…

TLE

最新Source: Space-Track

元期: Sep 14, 2026, 14:09 UTC

1 39234U 13044B   26257.58983441 -.00000085  00000-0  00000-0 0  9991
2 39234   0.3051  86.9605 0005060 165.1737  27.7832  1.00272105 46150

AllMySatでGSAT 7をリアルタイム追跡

Download on the App Store